User: anonymous   Login
Location: Kitchener
(43.4500°N, 80.5000°W)
Time: 03:14:57
(UTC-04:00)
Language:

ATLAS 5 CENTAUR R/B - Orbit

View from above orbital plane
View from above orbital plane
View from above satellite
View from above satellite

Ground track
Ground track

The orbit data is extracted from the following two-line orbital elements,

1 31702U 07027B   16179.01586521 0.00000200  00000-0  74640-4 0    01
2 31702  63.3667 177.4676 0227000   1.2934 358.7066 14.18490053    04
Epoch (UTC): 27 June 2016 00:22:50
Eccentricity: 0.0227000
inclination: 63.3667°
perigee height: 667 km
apogee height: 994 km
right ascension of ascending node: 177.4676°
argument of perigee: 1.2934°
revolutions per day: 14.18490053
mean anomaly at epoch: 358.7066°
orbit number at epoch: 0

The dashed part of the orbit path shows where the satellite is in the earth's shadow,  

DLR